Time,TemperatureF,DewpointF,PressureIn,WindDirection,WindDirectionDegrees,WindSpeedMPH,WindSpeedGustMPH,Humidity,HourlyPrecipIn,Conditions,Clouds,dailyrainin,SoftwareType,DateUTC
2013-06-02 00:01:00,44.7,40.8,30.16,NNE,23,7.4,13.3,86,0.00,,,0.00,WUHU216HW,2013-06-02 05:01:00,
2013-06-02 00:06:00,44.9,41.0,30.16,NNE,23,8.8,9.8,86,0.00,,,0.00,WUHU216HW,2013-06-02 05:06:00,
2013-06-02 00:11:00,44.9,41.0,30.16,North,0,9.1,12.6,86,0.00,,,0.00,WUHU216HW,2013-06-02 05:11:00,
2013-06-02 00:16:00,44.7,40.8,30.16,North,0,9.4,13.1,86,0.00,,,0.00,WUHU216HW,2013-06-02 05:16:00,
2013-06-02 00:21:00,44.7,40.8,30.16,North,0,14.1,16.8,86,0.00,,,0.00,WUHU216HW,2013-06-02 05:21:00,
2013-06-02 00:25:00,44.7,40.8,30.16,North,0,9.5,16.8,86,0.00,,,0.00,WUHU216HW,2013-06-02 05:25:00,
2013-06-02 00:30:00,44.6,40.6,30.16,North,0,11.8,11.8,86,0.00,,,0.00,WUHU216HW,2013-06-02 05:30:00,
2013-06-02 00:35:00,44.6,40.6,30.16,NNW,338,9.8,11.8,86,0.00,,,0.00,WUHU216HW,2013-06-02 05:35:00,
2013-06-02 00:40:00,44.4,40.4,30.16,NNW,338,7.4,11.8,86,0.00,,,0.00,WUHU216HW,2013-06-02 05:40:00,
2013-06-02 00:45:00,44.2,40.3,30.16,North,0,7.0,9.8,86,0.00,,,0.00,WUHU216HW,2013-06-02 05:45:00,
2013-06-02 00:50:00,44.0,40.1,30.16,North,0,7.3,7.8,86,0.00,,,0.00,WUHU216HW,2013-06-02 05:50:00,
2013-06-02 00:55:00,43.8,39.9,30.17,North,0,8.9,8.9,86,0.00,,,0.00,WUHU216HW,2013-06-02 05:55:00,
2013-06-02 01:00:00,43.7,39.7,30.17,North,0,8.0,9.5,86,0.00,,,0.00,WUHU216HW,2013-06-02 06:00:00,
2013-06-02 01:05:00,43.7,39.7,30.16,North,0,6.1,9.1,86,0.00,,,0.00,WUHU216HW,2013-06-02 06:05:00,
2013-06-02 01:10:00,43.5,39.9,30.16,North,0,7.8,9.5,87,0.00,,,0.00,WUHU216HW,2013-06-02 06:10:00,
2013-06-02 01:15:00,43.3,39.7,30.17,North,0,8.0,9.5,87,0.00,,,0.00,WUHU216HW,2013-06-02 06:15:00,
2013-06-02 01:20:00,43.1,39.5,30.17,North,0,6.1,8.0,87,0.00,,,0.00,WUHU216HW,2013-06-02 06:20:00,
2013-06-02 01:25:00,43.1,39.5,30.17,North,0,4.6,5.9,87,0.00,,,0.00,WUHU216HW,2013-06-02 06:25:00,
2013-06-02 01:30:00,42.9,39.3,30.17,North,0,4.2,5.9,87,0.00,,,0.00,WUHU216HW,2013-06-02 06:30:00,
2013-06-02 01:35:00,42.9,39.3,30.17,NNW,338,4.8,5.9,87,0.00,,,0.00,WUHU216HW,2013-06-02 06:35:00,
2013-06-02 01:40:00,42.6,39.0,30.17,North,0,3.7,7.0,87,0.00,,,0.00,WUHU216HW,2013-06-02 06:40:00,
2013-06-02 01:45:00,42.6,39.0,30.17,North,0,3.1,7.0,87,0.00,,,0.00,WUHU216HW,2013-06-02 06:45:00,
2013-06-02 01:50:00,42.6,39.0,30.17,North,0,4.1,4.4,87,0.00,,,0.00,WUHU216HW,2013-06-02 06:50:00,
2013-06-02 01:55:00,42.4,38.8,30.17,NW,315,5.0,5.0,87,0.00,,,0.00,WUHU216HW,2013-06-02 06:55:00,
2013-06-02 02:00:00,42.4,38.8,30.17,North,0,8.9,8.9,87,0.00,,,0.00,WUHU216HW,2013-06-02 07:00:00,
2013-06-02 02:05:00,42.4,38.8,30.17,North,0,5.8,8.9,87,0.00,,,0.00,WUHU216HW,2013-06-02 07:05:00,
2013-06-02 02:10:00,42.0,38.7,30.17,North,0,6.4,6.4,88,0.00,,,0.00,WUHU216HW,2013-06-02 07:10:00,
2013-06-02 02:15:00,42.0,38.7,30.18,North,0,3.1,6.1,88,0.00,,,0.00,WUHU216HW,2013-06-02 07:15:00,
2013-06-02 02:20:00,42.0,38.7,30.17,North,0,8.6,8.6,88,0.00,,,0.00,WUHU216HW,2013-06-02 07:20:00,
2013-06-02 02:25:00,42.0,38.7,30.17,NNW,348,6.4,8.6,88,0.00,,,0.00,WUHU216HW,2013-06-02 07:25:00,
2013-06-02 02:30:00,42.0,38.7,30.17,NNW,338,6.4,6.6,88,0.00,,,0.00,WUHU216HW,2013-06-02 07:30:00,
2013-06-02 02:35:00,42.0,38.7,30.17,North,0,6.1,6.4,88,0.00,,,0.00,WUHU216HW,2013-06-02 07:35:00,
2013-06-02 02:40:00,42.0,38.7,30.17,North,0,2.5,6.1,88,0.00,,,0.00,WUHU216HW,2013-06-02 07:40:00,
2013-06-02 02:45:00,42.4,39.1,30.17,North,0,6.9,6.9,88,0.00,,,0.00,WUHU216HW,2013-06-02 07:45:00,
2013-06-02 02:50:00,42.6,39.3,30.17,North,0,2.8,7.8,88,0.00,,,0.00,WUHU216HW,2013-06-02 07:50:00,
2013-06-02 02:55:00,42.6,39.3,30.17,NNW,338,10.0,10.0,88,0.00,,,0.00,WUHU216HW,2013-06-02 07:55:00,
2013-06-02 03:00:00,42.9,39.6,30.16,North,0,5.0,10.0,88,0.00,,,0.00,WUHU216HW,2013-06-02 08:00:00,
2013-06-02 03:05:00,42.9,39.6,30.17,North,0,7.8,10.0,88,0.00,,,0.00,WUHU216HW,2013-06-02 08:05:00,
2013-06-02 03:10:00,42.6,39.3,30.17,North,0,7.2,7.8,88,0.00,,,0.00,WUHU216HW,2013-06-02 08:10:00,
2013-06-02 03:15:00,42.6,39.6,30.18,North,0,8.0,8.0,89,0.00,,,0.00,WUHU216HW,2013-06-02 08:15:00,
2013-06-02 03:20:00,42.6,39.6,30.18,North,0,6.9,8.4,89,0.00,,,0.00,WUHU216HW,2013-06-02 08:20:00,
2013-06-02 03:25:00,42.6,39.6,30.18,North,0,6.3,8.4,89,0.00,,,0.00,WUHU216HW,2013-06-02 08:25:00,
2013-06-02 03:30:00,42.4,39.4,30.18,NNW,338,3.0,7.3,89,0.00,,,0.00,WUHU216HW,2013-06-02 08:30:00,
2013-06-02 03:35:00,42.4,39.4,30.18,NNW,338,3.0,7.3,89,0.00,,,0.00,WUHU216HW,2013-06-02 08:35:00,
2013-06-02 03:40:00,42.0,39.0,30.18,North,0,5.0,5.0,89,0.00,,,0.00,WUHU216HW,2013-06-02 08:40:00,
2013-06-02 03:45:00,42.4,39.4,30.18,North,0,3.6,5.8,89,0.00,,,0.00,WUHU216HW,2013-06-02 08:45:00,
2013-06-02 03:50:00,42.4,39.4,30.18,North,0,3.0,6.6,89,0.00,,,0.00,WUHU216HW,2013-06-02 08:50:00,
2013-06-02 03:55:00,42.6,39.6,30.18,North,0,3.3,7.5,89,0.00,,,0.00,WUHU216HW,2013-06-02 08:55:00,
2013-06-02 04:00:00,42.6,39.6,30.18,North,0,5.9,7.2,89,0.00,,,0.00,WUHU216HW,2013-06-02 09:00:00,
2013-06-02 04:05:00,42.6,39.6,30.18,NNW,338,3.0,6.9,89,0.00,,,0.00,WUHU216HW,2013-06-02 09:05:00,
2013-06-02 04:10:00,42.6,39.6,30.18,North,0,4.6,6.6,89,0.00,,,0.00,WUHU216HW,2013-06-02 09:10:00,
2013-06-02 04:15:00,42.6,39.6,30.19,North,0,5.5,6.6,89,0.00,,,0.00,WUHU216HW,2013-06-02 09:15:00,
2013-06-02 04:20:00,42.6,39.6,30.19,North,0,6.1,6.6,89,0.00,,,0.00,WUHU216HW,2013-06-02 09:20:00,
2013-06-02 04:25:00,43.1,40.1,30.19,North,0,6.4,6.4,89,0.00,,,0.00,WUHU216HW,2013-06-02 09:25:00,
2013-06-02 04:30:00,43.3,40.3,30.19,North,0,2.4,6.4,89,0.00,,,0.00,WUHU216HW,2013-06-02 09:30:00,
2013-06-02 04:35:00,43.5,40.5,30.19,North,0,9.1,9.1,89,0.00,,,0.00,WUHU216HW,2013-06-02 09:35:00,
2013-06-02 04:40:00,43.7,41.0,30.19,North,0,8.0,10.0,90,0.00,,,0.00,WUHU216HW,2013-06-02 09:40:00,
2013-06-02 04:45:00,43.8,41.1,30.19,NNE,23,7.2,9.6,90,0.00,,,0.00,WUHU216HW,2013-06-02 09:45:00,
2013-06-02 04:50:00,43.8,41.1,30.19,North,0,8.0,8.0,90,0.00,,,0.00,WUHU216HW,2013-06-02 09:50:00,
2013-06-02 04:55:00,43.7,41.0,30.18,North,0,4.0,8.0,90,0.00,,,0.00,WUHU216HW,2013-06-02 09:55:00,
2013-06-02 05:00:00,43.5,40.5,30.19,North,0,6.6,6.6,89,0.00,,,0.00,WUHU216HW,2013-06-02 10:00:00,
2013-06-02 05:05:00,43.3,40.3,30.19,North,0,6.4,6.6,89,0.00,,,0.00,WUHU216HW,2013-06-02 10:05:00,
2013-06-02 05:10:00,42.9,39.9,30.18,North,0,4.3,6.4,89,0.00,,,0.00,WUHU216HW,2013-06-02 10:10:00,
2013-06-02 05:15:00,42.6,39.6,30.18,North,0,2.1,4.8,89,0.00,,,0.00,WUHU216HW,2013-06-02 10:15:00,
2013-06-02 05:20:00,42.0,39.0,30.19,North,0,0.0,4.8,89,0.00,,,0.00,WUHU216HW,2013-06-02 10:20:00,
2013-06-02 05:25:00,41.7,38.7,30.19,North,0,0.0,1.8,89,0.00,,,0.00,WUHU216HW,2013-06-02 10:25:00,
2013-06-02 05:30:00,41.3,38.3,30.19,North,0,0.0,0.8,89,0.00,,,0.00,WUHU216HW,2013-06-02 10:30:00,
2013-06-02 05:35:00,40.8,37.9,30.19,North,0,0.8,0.8,89,0.00,,,0.00,WUHU216HW,2013-06-02 10:35:00,
2013-06-02 05:40:00,40.6,37.6,30.19,North,0,0.0,0.8,89,0.00,,,0.00,WUHU216HW,2013-06-02 10:40:00,
2013-06-02 05:45:00,40.4,37.4,30.19,North,0,0.0,0.0,89,0.00,,,0.00,WUHU216HW,2013-06-02 10:45:00,
2013-06-02 05:50:00,40.2,37.2,30.19,North,0,0.0,0.0,89,0.00,,,0.00,WUHU216HW,2013-06-02 10:50:00,
2013-06-02 05:55:00,40.1,37.0,30.19,North,0,0.0,0.0,89,0.00,,,0.00,WUHU216HW,2013-06-02 10:55:00,
2013-06-02 06:00:00,39.9,36.9,30.19,North,0,0.0,0.0,89,0.00,,,0.00,WUHU216HW,2013-06-02 11:00:00,
2013-06-02 06:05:00,39.9,36.9,30.19,North,0,0.0,0.0,89,0.00,,,0.00,WUHU216HW,2013-06-02 11:05:00,
2013-06-02 06:10:00,40.1,37.0,30.19,North,0,0.0,5.0,89,0.00,,,0.00,WUHU216HW,2013-06-02 11:10:00,
2013-06-02 06:15:00,40.2,37.2,30.19,North,0,0.8,5.3,89,0.00,,,0.00,WUHU216HW,2013-06-02 11:15:00,
2013-06-02 06:20:00,40.2,37.2,30.19,North,0,2.1,2.1,89,0.00,,,0.00,WUHU216HW,2013-06-02 11:20:00,
2013-06-02 06:25:00,40.4,37.4,30.19,North,0,3.3,3.3,89,0.00,,,0.00,WUHU216HW,2013-06-02 11:25:00,
2013-06-02 06:30:00,40.2,37.2,30.19,North,0,0.0,3.3,89,0.00,,,0.00,WUHU216HW,2013-06-02 11:30:00,
2013-06-02 06:35:00,40.1,37.0,30.19,NNW,338,0.0,3.3,89,0.00,,,0.00,WUHU216HW,2013-06-02 11:35:00,
2013-06-02 06:40:00,39.7,36.7,30.20,NNW,338,0.0,0.0,89,0.00,,,0.00,WUHU216HW,2013-06-02 11:40:00,
2013-06-02 06:44:00,39.7,36.7,30.20,NNW,338,0.0,0.0,89,0.00,,,0.00,WUHU216HW,2013-06-02 11:44:00,
2013-06-02 06:49:00,39.9,36.9,30.20,NNW,338,1.4,1.4,89,0.00,,,0.00,WUHU216HW,2013-06-02 11:49:00,
2013-06-02 06:54:00,40.1,37.0,30.20,North,0,1.0,1.3,89,0.00,,,0.00,WUHU216HW,2013-06-02 11:54:00,
2013-06-02 06:59:00,40.1,37.0,30.20,North,0,1.4,1.4,89,0.00,,,0.00,WUHU216HW,2013-06-02 11:59:00,
2013-06-02 07:04:00,41.1,38.1,30.20,North,0,1.3,1.3,89,0.00,,,0.00,WUHU216HW,2013-06-02 12:04:00,
2013-06-02 07:09:00,41.3,38.6,30.20,North,0,5.5,5.5,90,0.00,,,0.00,WUHU216HW,2013-06-02 12:09:00,
2013-06-02 07:14:00,42.0,39.3,30.20,North,8,4.5,5.8,90,0.00,,,0.00,WUHU216HW,2013-06-02 12:14:00,
2013-06-02 07:19:00,42.0,39.3,30.20,NNE,23,3.3,5.8,90,0.00,,,0.00,WUHU216HW,2013-06-02 12:19:00,
2013-06-02 07:24:00,42.6,39.9,30.20,NNE,23,3.3,3.3,90,0.00,,,0.00,WUHU216HW,2013-06-02 12:24:00,
2013-06-02 07:29:00,42.6,39.9,30.20,NNE,23,3.1,3.1,90,0.00,,,0.00,WUHU216HW,2013-06-02 12:29:00,
2013-06-02 07:34:00,43.3,40.6,30.20,North,0,6.4,7.0,90,0.00,,,0.00,WUHU216HW,2013-06-02 12:34:00,
2013-06-02 07:39:00,43.3,40.6,30.20,North,0,6.4,7.0,90,0.00,,,0.00,WUHU216HW,2013-06-02 12:39:00,
2013-06-02 07:44:00,44.0,41.3,30.20,NNE,23,0.7,8.3,90,0.00,,,0.00,WUHU216HW,2013-06-02 12:44:00,
2013-06-02 07:49:00,44.2,41.5,30.20,NNE,23,0.0,8.3,90,0.00,,,0.00,WUHU216HW,2013-06-02 12:49:00,
2013-06-02 07:54:00,44.6,41.9,30.20,NNE,23,0.0,3.5,90,0.00,,,0.00,WUHU216HW,2013-06-02 12:54:00,
2013-06-02 07:59:00,46.2,43.5,30.20,NNE,23,0.7,4.6,90,0.00,,,0.00,WUHU216HW,2013-06-02 12:59:00,
2013-06-02 08:04:00,46.7,44.0,30.20,North,0,0.0,7.2,90,0.00,,,0.00,WUHU216HW,2013-06-02 13:04:00,
2013-06-02 08:09:00,47.3,44.6,30.20,NNE,23,5.0,7.5,90,0.00,,,0.00,WUHU216HW,2013-06-02 13:09:00,
2013-06-02 08:14:00,50.1,47.3,30.20,NNE,23,5.3,6.4,90,0.00,,,0.00,WUHU216HW,2013-06-02 13:14:00,
2013-06-02 08:19:00,51.6,48.4,30.20,North,0,2.5,5.3,89,0.00,,,0.00,WUHU216HW,2013-06-02 13:19:00,
2013-06-02 08:24:00,52.7,48.9,30.20,NNE,23,0.0,4.8,87,0.00,,,0.00,WUHU216HW,2013-06-02 13:24:00,
2013-06-02 08:29:00,53.7,47.8,30.20,NNW,338,1.4,1.6,80,0.00,,,0.00,WUHU216HW,2013-06-02 13:29:00,
2013-06-02 08:34:00,55.0,47.5,30.20,North,0,3.9,3.9,76,0.00,,,0.00,WUHU216HW,2013-06-02 13:34:00,
2013-06-02 08:39:00,55.9,47.3,30.21,North,0,1.4,3.9,73,0.00,,,0.00,WUHU216HW,2013-06-02 13:39:00,
2013-06-02 08:44:00,58.8,49.1,30.21,NNW,338,2.8,2.8,70,0.00,,,0.00,WUHU216HW,2013-06-02 13:44:00,
2013-06-02 08:49:00,61.1,49.7,30.21,NNW,338,3.6,3.6,66,0.00,,,0.00,WUHU216HW,2013-06-02 13:49:00,
2013-06-02 08:54:00,63.1,49.8,30.21,WNW,293,0.0,3.6,62,0.00,,,0.00,WUHU216HW,2013-06-02 13:54:00,
2013-06-02 08:59:00,64.5,50.3,30.21,NW,315,0.0,2.0,60,0.00,,,0.00,WUHU216HW,2013-06-02 13:59:00,
2013-06-02 09:04:00,67.6,50.8,30.21,NNW,338,0.0,3.0,55,0.00,,,0.00,WUHU216HW,2013-06-02 14:04:00,
2013-06-02 09:09:00,67.6,49.8,30.21,North,0,0.0,2.9,53,0.00,,,0.00,WUHU216HW,2013-06-02 14:09:00,
2013-06-02 09:14:00,66.0,48.3,30.22,North,0,2.9,2.9,53,0.00,,,0.00,WUHU216HW,2013-06-02 14:14:00,
2013-06-02 09:19:00,64.5,47.4,30.21,NNE,23,6.6,6.6,54,0.00,,,0.00,WUHU216HW,2013-06-02 14:19:00,
2013-06-02 09:24:00,64.0,47.4,30.21,North,0,8.5,8.5,55,0.00,,,0.00,WUHU216HW,2013-06-02 14:24:00,
2013-06-02 09:29:00,64.0,46.4,30.21,North,0,4.2,8.5,53,0.00,,,0.00,WUHU216HW,2013-06-02 14:29:00,
2013-06-02 09:34:00,63.6,46.6,30.21,NW,315,8.5,8.5,54,0.00,,,0.00,WUHU216HW,2013-06-02 14:34:00,
2013-06-02 09:39:00,64.0,46.4,30.21,NW,315,6.1,8.5,53,0.00,,,0.00,WUHU216HW,2013-06-02 14:39:00,
2013-06-02 09:44:00,63.6,46.1,30.21,WNW,293,0.0,6.1,53,0.00,,,0.00,WUHU216HW,2013-06-02 14:44:00,
2013-06-02 09:49:00,66.0,48.3,30.21,West,270,5.9,5.9,53,0.00,,,0.00,WUHU216HW,2013-06-02 14:49:00,
2013-06-02 09:54:00,68.3,49.5,30.21,West,270,8.8,8.8,51,0.00,,,0.00,WUHU216HW,2013-06-02 14:54:00,
2013-06-02 09:59:00,65.4,45.2,30.21,NW,315,3.7,8.8,48,0.00,,,0.00,WUHU216HW,2013-06-02 14:59:00,
2013-06-02 10:04:00,62.4,44.0,30.21,WNW,293,7.8,7.8,51,0.00,,,0.00,WUHU216HW,2013-06-02 15:04:00,
2013-06-02 10:09:00,62.2,44.8,30.20,NNW,338,3.3,7.8,53,0.00,,,0.00,WUHU216HW,2013-06-02 15:09:00,
2013-06-02 10:14:00,64.5,46.4,30.20,North,0,0.0,6.9,52,0.00,,,0.00,WUHU216HW,2013-06-02 15:14:00,
2013-06-02 10:19:00,69.9,51.5,30.20,NW,315,0.0,0.0,52,0.00,,,0.00,WUHU216HW,2013-06-02 15:19:00,
2013-06-02 10:24:00,72.1,48.9,30.20,WNW,293,9.1,9.1,44,0.00,,,0.00,WUHU216HW,2013-06-02 15:24:00,
2013-06-02 10:29:00,67.8,46.4,30.20,WNW,293,2.4,9.1,46,0.00,,,0.00,WUHU216HW,2013-06-02 15:29:00,
2013-06-02 10:34:00,67.6,47.2,30.20,West,270,0.0,6.6,48,0.00,,,0.00,WUHU216HW,2013-06-02 15:34:00,
2013-06-02 10:39:00,69.0,48.5,30.20,NW,315,0.0,1.9,48,0.00,,,0.00,WUHU216HW,2013-06-02 15:39:00,
2013-06-02 10:44:00,70.8,48.3,30.19,West,270,0.0,0.0,45,0.00,,,0.00,WUHU216HW,2013-06-02 15:44:00,
2013-06-02 10:49:00,70.8,47.7,30.20,NW,315,0.8,0.8,44,0.00,,,0.00,WUHU216HW,2013-06-02 15:49:00,
2013-06-02 10:54:00,68.9,45.9,30.20,NW,315,5.3,5.3,44,0.00,,,0.00,WUHU216HW,2013-06-02 15:54:00,
2013-06-02 10:59:00,67.8,46.2,30.20,North,0,3.5,5.0,46,0.00,,,0.00,WUHU216HW,2013-06-02 15:59:00,
2013-06-02 11:04:00,69.4,48.2,30.19,North,0,0.7,3.5,47,0.00,,,0.00,WUHU216HW,2013-06-02 16:04:00,
2013-06-02 11:09:00,69.6,46.0,30.19,WNW,293,5.8,5.8,43,0.00,,,0.00,WUHU216HW,2013-06-02 16:09:00,
2013-06-02 11:14:00,67.8,45.6,30.19,West,270,6.4,7.5,45,0.00,,,0.00,WUHU216HW,2013-06-02 16:14:00,
2013-06-02 11:19:00,67.8,45.6,30.20,WSW,248,3.7,7.2,45,0.00,,,0.00,WUHU216HW,2013-06-02 16:19:00,
2013-06-02 11:24:00,67.8,45.6,30.20,WSW,248,3.9,6.4,45,0.00,,,0.00,WUHU216HW,2013-06-02 16:24:00,
2013-06-02 11:29:00,70.7,48.2,30.20,WSW,248,3.9,3.9,45,0.00,,,0.00,WUHU216HW,2013-06-02 16:29:00,
2013-06-02 11:34:00,70.7,48.2,30.20,WSW,248,3.9,3.9,45,0.00,,,0.00,WUHU216HW,2013-06-02 16:34:00,
2013-06-02 11:39:00,70.7,48.2,30.20,WSW,248,3.9,3.9,45,0.00,,,0.00,WUHU216HW,2013-06-02 16:39:00,
2013-06-02 11:44:00,70.7,48.2,30.19,NW,315,2.3,5.0,45,0.00,,,0.00,WUHU216HW,2013-06-02 16:44:00,
2013-06-02 11:49:00,70.7,48.2,30.19,NNW,338,0.0,4.8,45,0.00,,,0.00,WUHU216HW,2013-06-02 16:49:00,
2013-06-02 11:54:00,70.7,48.2,30.19,NNW,338,0.0,1.8,45,0.00,,,0.00,WUHU216HW,2013-06-02 16:54:00,
2013-06-02 11:59:00,70.7,48.2,30.19,NNW,338,0.0,0.0,45,0.00,,,0.00,WUHU216HW,2013-06-02 16:59:00,
2013-06-02 12:04:00,70.7,48.2,30.19,NNW,338,0.0,0.0,45,0.00,,,0.00,WUHU216HW,2013-06-02 17:04:00,
2013-06-02 12:09:00,70.7,48.2,30.19,NNW,338,0.0,0.0,45,0.00,,,0.00,WUHU216HW,2013-06-02 17:09:00,
2013-06-02 12:20:00,67.2,45.1,30.18,NNW,338,0.7,0.7,45,0.00,,,0.00,WUHU216HW,2013-06-02 17:20:00,
2013-06-02 12:25:00,67.2,45.1,30.18,NNW,338,0.8,0.8,45,0.00,,,0.00,WUHU216HW,2013-06-02 17:25:00,
2013-06-02 12:30:00,67.2,45.1,30.18,NNW,338,0.7,0.7,45,0.00,,,0.00,WUHU216HW,2013-06-02 17:30:00,
2013-06-02 12:35:00,67.2,45.1,30.18,NNW,338,0.7,0.7,45,0.00,,,0.00,WUHU216HW,2013-06-02 17:35:00,
2013-06-02 12:39:00,67.2,45.1,30.18,NNW,338,0.7,0.7,45,0.00,,,0.00,WUHU216HW,2013-06-02 17:39:00,